Regional Weather Roundup
Issued by NWS

Home | Current Version | Previous Version | Graphics & Text | Print | Product List | Glossary On
Versions: 1 2 3 4 5 6 7 8 9 10 11 12 13 14 15 16 17 18 19 20 21 22 23 24 25 26 27 28 29 30 31 32 33 34 35 36 37 38 39 40 41 42 43 44 45 46 47 48 49 50
000
ASUS43 KOAX 191802
RWRNE

WEATHER ROUNDUP FOR NEBRASKA
NATIONAL WEATHER SERVICE OMAHA NE
100 PM CDT THU APR 19 2018

NOTES: SATELLITE DATA IS BEING USED TO AUGMENT CLOUD COVER ABOVE
       12000 FEET.
       "FAIR" INDICATES FEW OR NO CLOUDS BELOW 12,000 FEET WITH NO
       SIGNIFICANT WEATHER AND/OR OBSTRUCTIONS TO VISIBILITY.


NEZ001>004-019>022-054>056-191900-
NEBRASKA PANHANDLE

CITY           SKY/WX    TMP DP  RH WIND       PRES   REMARKS
SCOTTSBLUFF    PTSUNNY   56  30  37 SE24G30   30.25F
6HR MIN TEMP:  29; 6HR MAX TEMP:  56;

ALLIANCE       PTSUNNY   55  33  43 S21G26    30.29F
6HR MIN TEMP:  28; 6HR MAX TEMP:  55;

CHADRON        PTSUNNY   56  33  42 S18       30.28F
6HR MIN TEMP:  25; 6HR MAX TEMP:  56;

KIMBALL        PTSUNNY   56  24  29 S23G33    30.24F
SIDNEY         MOSUNNY   55  28  35 S17G32    30.28F
6HR MIN TEMP:  28; 6HR MAX TEMP:  56;

$$

NEZ057>060-069>072-079>082-191900-
SOUTHWEST NEBRASKA

CITY           SKY/WX    TMP DP  RH WIND       PRES   REMARKS
NORTH PLATTE   SUNNY     54  32  43 SE10G17   30.40F
6HR MIN TEMP:  21; 6HR MAX TEMP:  54;

IMPERIAL       SUNNY     55  29  36 SE15G31   30.35F
6HR MIN TEMP:  23; 6HR MAX TEMP:  56;

LEXINGTON      SUNNY     50  31  49 E6        30.43F
MCCOOK         SUNNY     53  29  39 SE12G21   30.40F
6HR MIN TEMP:  22; 6HR MAX TEMP:  54;

OGALLALA       SUNNY     56  31  39 SE14      30.34F
$$

NEZ005>010-023>029-035>040-094-191900-
NORTH CENTRAL NEBRASKA

CITY           SKY/WX    TMP DP  RH WIND       PRES   REMARKS
VALENTINE      SUNNY     50  30  46 SE9       30.39F
6HR MIN TEMP:  22; 6HR MAX TEMP:  50;

AINSWORTH      SUNNY     47  33  59 SE9       30.41F
BROKEN BOW     SUNNY     49  32  52 E10       30.42F
6HR MIN TEMP:  23; 6HR MAX TEMP:  49;

O`NEILL        SUNNY     48  26  42 E10       30.47S
ORD            SUNNY     48  22  35 E8        30.45F
6HR MIN TEMP:  26; 6HR MAX TEMP:  48;

THEDFORD       SUNNY     51  30  44 SE12      30.40F
$$

NEZ041-046>049-061>064-073>077-083>087-191900-
SOUTH CENTRAL NEBRASKA

CITY           SKY/WX    TMP DP  RH WIND       PRES   REMARKS
GRAND ISLAND   SUNNY     48  30  49 NE6       30.47S
6HR MIN TEMP:  27; 6HR MAX TEMP:  48;

AURORA         SUNNY     49  29  46 N3        30.47R
HASTINGS       SUNNY     49  28  44 VRB3      30.47S
6HR MIN TEMP:  26; 6HR MAX TEMP:  49;

HEBRON         SUNNY     51  28  41 CALM      30.48S
HOLDREGE       SUNNY     49  29  47 SW3       30.44F
KEARNEY        SUNNY     49  28  44 CALM      30.46F
YORK             N/A     50  28  43 CALM      30.47S
$$

NEZ011>018-030>034-042>045-191900-
NORTHEAST NEBRASKA

CITY           SKY/WX    TMP DP  RH WIND       PRES   REMARKS
NORFOLK        SUNNY     50  22  33 MISG      30.47R
6HR MIN TEMP:  27; 6HR MAX TEMP:  50;

ALBION         SUNNY     49  22  35 E6        30.46F
BLAIR          SUNNY     50  30  46 NE9       30.47S
FREMONT        SUNNY     51  25  35 E3        30.48S
TEKAMAH        SUNNY     49  33  54 NE7       30.49S
6HR MIN TEMP:  27; 6HR MAX TEMP:  49;

WAYNE          SUNNY     49  25  39 NE5       30.49S
$$

NEZ050>053-065>068-078-088>093-191900-
SOUTHEAST NEBRASKA

CITY           SKY/WX    TMP DP  RH WIND       PRES   REMARKS
LINCOLN        SUNNY     53  27  36 VRB3      30.49F
6HR MIN TEMP:  28; 6HR MAX TEMP:  54;

OMAHA EPPLEY   MOSUNNY   52  29  41 VRB3      30.47F
6HR MIN TEMP:  27; 6HR MAX TEMP:  52;

BEATRICE       SUNNY     52  30  43 NE3       30.47F
FALLS CITY     SUNNY     53  27  36 NE8       30.46F
6HR MIN TEMP:  27; 6HR MAX TEMP:  53;

NEBRASKA CITY  SUNNY     51  31  46 CALM      30.47F
PLATTSMOUTH    SUNNY     51  30  43 NW3       30.47S
$$

NEZ044-045-051>053-067-191900-
OMAHA AREA

CITY           SKY/WX    TMP DP  RH WIND       PRES   REMARKS
OMAHA EPPLEY   MOSUNNY   52  29  41 VRB3      30.47F
6HR MIN TEMP:  27; 6HR MAX TEMP:  52;

BLAIR          SUNNY     50  30  46 NE9       30.47S
FREMONT        SUNNY     51  25  35 E3        30.48S
MILLARD        SUNNY     52  29  42 S3        30.48S
OFFUTT AFB     MOSUNNY   52  30  42 NW5       30.47S
PLATTSMOUTH    SUNNY     51  30  43 NW3       30.47S
WAHOO          FAIR      51  20  30 E5        30.48S
$$




USA.gov is the U.S. government's official web portal to all federal, state and local government web resources and services.